Home > Weather > Gaziantep > Past weeks

Flag for Turkey Past Weather in Gaziantep, Turkey — Yesterday and Last 2 Weeks

Now
57 °F

Clear.


Feels Like: 57 °F
Forecast: 55 / 83 °F
Wind: No wind

Location: Gaziantep Airport

Current Time: May 30, 2016 at 6:03:17 AM

Latest Report: May 30, 2016 at 5:20 AM


Visibility: 10 mi

Pressure: 29.95 "Hg (27.05 "Hg at 856m altitude)

Humidity: 72%

Dew Point: 48 °F

Location of GaziantepLocation

Past Weather in Gaziantep — Graph

°F

Gaziantep Temperature Yesterday

Maximum temperature yesterday: 73 °F (at 12:20 PM)
Minimum temperature yesterday: 52 °F (at 12:50 AM)
Average temperature yesterday: 62 °F

High & Low Weather Summary for the Past Weeks

 TemperatureHumidityPressure
High90 °F (May 16, 2:20 PM)94% (May 24, 5:20 AM)30.04 "Hg (May 24, 5:20 AM)
Low52 °F (May 18, 5:20 AM)11% (May 16, 5:50 PM)29.74 "Hg (May 18, 2:20 PM)
Average68 °F45%29.86 "Hg
* Reported May 15 4:20 AM — May 30 4:50 AM, Gaziantep, Weather by CustomWeather, © 2016

Note: Actual official high and low records may vary slightly from our data, if they occured in-between our weather recording intervals... More about our weather records

Advertising

Gaziantep Weather History for the Previous 24 Hours

Scroll right to see more
 ConditionsComfort  
Time TempWeatherWind HumidityBarometerVisibility
4:50 AM
Mon, May 30
55 °FClear.No wind77%29.95 "Hg10 mi
4:20 AM57 °FClear.2 mph72%29.95 "Hg10 mi
3:50 AM57 °FPassing clouds.5 mph77%29.95 "HgN/A
3:20 AM57 °FClear.2 mph72%29.95 "Hg10 mi
2:50 AM59 °FClear.3 mph68%29.95 "Hg10 mi
2:20 AM57 °FClear.7 mph77%29.95 "Hg10 mi
1:50 AM59 °FClear.12 mph72%29.95 "Hg10 mi
1:20 AM61 °FPassing clouds.6 mph68%29.95 "HgN/A
12:50 AM57 °FClear.2 mph72%29.95 "Hg10 mi
12:20 AM61 °FPassing clouds.2 mph68%29.95 "HgN/A
11:50 PM
Sun, May 29
59 °FPassing clouds.No wind72%29.95 "HgN/A
11:20 PM57 °FPassing clouds.1 mph77%29.95 "HgN/A
10:50 PM57 °FPartly cloudy.No wind82%29.98 "HgN/A
10:20 PM59 °FPartly cloudy.5 mph82%29.98 "HgN/A
9:50 PM57 °FPartly cloudy.1 mph82%29.98 "HgN/A
9:20 PM59 °FPartly cloudy.3 mph77%29.95 "HgN/A
8:50 PM63 °FPartly cloudy.1 mph68%29.95 "HgN/A
8:20 PM63 °FBroken clouds.3 mph68%29.95 "HgN/A
7:50 PM64 °FBroken clouds.1 mph64%29.95 "HgN/A
7:20 PM66 °FBroken clouds.No wind64%29.95 "HgN/A
6:50 PM68 °FBroken clouds.No wind49%29.95 "HgN/A
6:20 PM70 °FBroken clouds.3 mph50%29.95 "HgN/A
5:50 PM66 °FThunderstorms. Partly sunny.2 mph64%29.92 "HgN/A
5:20 PM64 °FThunderstorms. Partly sunny.5 mph68%29.92 "HgN/A
5:02 PM66 °FSprinkles. Partly sunny.7 mph60%29.92 "HgN/A
4:20 PM66 °FPartly sunny.7 mph64%29.92 "HgN/A
3:50 PM64 °FThunderstorms. Partly sunny.5 mph68%29.92 "HgN/A
3:20 PM70 °FThunderstorms. Partly sunny.6 mph50%29.89 "HgN/A
2:50 PM72 °FBroken clouds.5 mph44%29.89 "HgN/A
2:20 PM70 °FBroken clouds.7 mph53%29.89 "HgN/A
1:50 PM68 °FSprinkles. Broken clouds.5 mph60%29.92 "HgN/A
1:20 PM68 °FSprinkles. Broken clouds.9 mph49%29.92 "HgN/A
12:50 PM72 °FBroken clouds.7 mph38%29.89 "HgN/A
12:20 PM73 °FBroken clouds.3 mph33%29.89 "HgN/A
11:50 AM72 °FBroken clouds.No wind33%29.89 "HgN/A
11:20 AM72 °FBroken clouds.3 mph38%29.89 "HgN/A
10:50 AM72 °FBroken clouds.3 mph38%29.89 "HgN/A
10:20 AM70 °FBroken clouds.3 mph40%29.89 "HgN/A
9:50 AM70 °FScattered clouds.No wind43%29.89 "HgN/A
9:20 AM68 °FScattered clouds.2 mph46%29.89 "HgN/A
8:50 AM66 °FPassing clouds.2 mph46%29.89 "HgN/A
8:20 AM64 °FPassing clouds.3 mph56%29.89 "HgN/A
7:50 AM63 °FPassing clouds.3 mph64%29.89 "HgN/A
7:20 AM61 °FScattered clouds.2 mph63%29.89 "HgN/A
6:50 AM57 °FScattered clouds.6 mph72%29.86 "HgN/A
6:20 AM55 °FPartly sunny.2 mph77%29.86 "HgN/A
Weather by CustomWeather, © 2016

See weather overviewHow to use our weather pages